Location: Assche-ter-Heiden
(50.9174°N, 4.1574°E)
Time: 18:45:27
(UTC+00:00)

STARLINK-72 - Pass Details

Date: 20 January 2020
Orbit: 528 x 531 km, 53.0° (Epoch: 16 February)

Event Time Altitude Azimuth Distance (km) Brightness Sun altitude
Rises 06:34:34 0° 236° (SW) 2,660 6.8 -9.5°
Reaches altitude 10° 06:36:47 10° 232° (SW) 1,774 5.9 -9.1°
Maximum altitude 06:40:44 60° 153° (SSE) 612 4.1 -8.6°
Drops below altitude 10° 06:44:46 10° 73° (ENE) 1,798 7.1 -8.0°
Sets 06:46:58 0° 70° (ENE) 2,677 7.9 -7.7°
